Location: Helsinki
(60.1699°N, 24.9384°E)
Time: 23:40:13
(UTC+02:00)

Transit 4A - Pass Details

Date: 30 October 2020
Orbit: 862 x 982 km, 66.8° (Epoch: 25 November)

Event Time Altitude Azimuth Distance (km) Brightness Sun altitude
Rises 21:13:54 0° 301° (WNW) 3,688 12.1 -34.6°
Reaches altitude 10° 21:16:31 10° 304° (NW) 2,744 11.1 -34.8°
Enters shadow 21:21:29 51° 334° (NNW) 1,228 8.7 -35.3°
